Weather History for Cecil Field, FL

Change the Weather History Date:

Sunday, May 5, 2013

  Actual Average (KJAX) Record (KJAX)
Temperature  
Mean Temperature 66 °F 71 °F  
Max Temperature 75 °F 83 °F 94 °F (1898)
Min Temperature 57 °F 59 °F 46 °F (1971)
Degree Days  
Heating Degree Days 0 0  
Month to date heating degree days 3  
Since 1 July heating degree days 1347  
Cooling Degree Days 1 7  
Month to date cooling degree days 32  
Year to date cooling degree days 228  
Growing Degree Days 16 (Base 50)    
Moisture  
Dew Point 58 °F    
Average Humidity 84    
Maximum Humidity 100    
Minimum Humidity 44    
Precipitation  
Precipitation 0.00 in 0.07 in 0.95 in (1907)
Month to date precipitation 0.31  
Year to date precipitation 13.39  
Snow  
Snow 0.00 in 0.00 in 0.00 in (2002)
Month to date snowfall 0.0  
Since 1 July snowfall T  
Snow Depth -    
Sea Level Pressure  
Sea Level Pressure 29.83 in    
Wind  
Wind Speed 4 mph (WSW)    
Max Wind Speed 17 mph    
Max Gust Speed -    
Visibility 8 miles    
Events Rain    
T = Trace of Precipitation, MM = Missing Value Source: NWS Daily Summary

Daily Weather History Graph

Daily Weather History Graph

Search for Another Location

Airport:

Trip Planner

Search our weather history database for the weather conditions in past years. The results will help you decide how hot, cold, wet, or windy it might be!

Date:

Astronomy

May. 05, 2013 Rise Set
Actual Time 6:40 AM EDT 8:08 PM EDT
Civil Twilight 6:15 AM EDT 8:33 PM EDT
Nautical Twilight 5:44 AM EDT 9:04 PM EDT
Astronomical Twilight 5:12 AM EDT 9:36 PM EDT
Moon 3:52 AM EDT (5/5) 4:21 PM EDT (5/5)
Length of Visible Light 14h 18m
Length of Day
13h 27m
Waning Crescent, 18% of the Moon is Illuminated
May 5
Waning Crescent
May 9
New
May 18
First Quarter
May 25
Full
May 31
Last Quarter

Hourly Weather History & Observations

Time (EDT) Temp. Dew Point Humidity Pressure Visibility Wind Dir Wind Speed Gust Speed Precip Events Conditions
12:15 AM 66.2 °F 66.2 °F 100% 29.77 in 10.0 mi Calm Calm - N/A   Overcast
12:35 AM 66.2 °F 66.2 °F 100% 29.77 in 10.0 mi Calm Calm - N/A   Overcast
12:55 AM 66.2 °F 66.2 °F 100% 29.77 in 10.0 mi Calm Calm - N/A   Overcast
1:15 AM 66.2 °F 66.2 °F 100% 29.76 in 10.0 mi Calm Calm - N/A   Overcast
1:35 AM 66.2 °F 66.2 °F 100% 29.76 in 10.0 mi Calm Calm - N/A   Overcast
1:55 AM 66.2 °F 66.2 °F 100% 29.76 in 10.0 mi Calm Calm - N/A   Overcast
2:15 AM 64.4 °F 64.4 °F 100% 29.75 in 10.0 mi Calm Calm - N/A   Overcast
2:35 AM 64.4 °F 64.4 °F 100% 29.75 in 8.0 mi Calm Calm - N/A   Overcast
2:55 AM 66.2 °F 66.2 °F 100% 29.74 in 4.0 mi SSW 3.5 mph - N/A Rain Light Rain
3:15 AM 66.2 °F 66.2 °F 100% 29.74 in 2.5 mi SW 6.9 mph - N/A Rain Light Rain
3:35 AM 64.4 °F 64.4 °F 100% 29.75 in 10.0 mi WSW 11.5 mph - N/A   Overcast
3:55 AM 62.6 °F 62.6 °F 100% 29.75 in 10.0 mi WSW 9.2 mph - N/A   Overcast
4:15 AM 62.6 °F 62.6 °F 100% 29.76 in 1.5 mi WSW 8.1 mph - N/A   Overcast
4:35 AM 60.8 °F 60.8 °F 100% 29.77 in 3.0 mi West 9.2 mph - N/A   Overcast
4:55 AM 59.0 °F 59.0 °F 100% 29.77 in 3.0 mi West 9.2 mph - N/A   Overcast
5:35 AM 59.0 °F 59.0 °F 100% 29.78 in 2.5 mi WSW 8.1 mph - N/A   Overcast
5:55 AM 59.0 °F 59.0 °F 100% 29.79 in 3.0 mi WSW 5.8 mph - N/A   Overcast
6:15 AM 59.0 °F 59.0 °F 100% 29.79 in 10.0 mi WSW 6.9 mph - N/A   Mostly Cloudy
6:35 AM 57.2 °F 57.2 °F 100% 29.80 in 10.0 mi WSW 4.6 mph - N/A   Mostly Cloudy
6:50 AM 57.2 °F 57.2 °F 100% 29.80 in 7.0 mi West 5.8 mph - N/A   Mostly Cloudy
7:50 AM 59.0 °F 59.0 °F 100% 29.84 in 2.0 mi West 10.4 mph - N/A   Overcast
8:50 AM 57.2 °F 57.2 °F 100% 29.87 in 8.0 mi West 9.2 mph - N/A   Overcast
9:07 AM 57.2 °F 57.2 °F 100% 29.89 in 1.5 mi West 10.4 mph - N/A   Overcast
9:50 AM 57.2 °F 57.2 °F 100% 29.89 in 2.0 mi West 11.5 mph - N/A   Overcast
10:50 AM 59.0 °F 57.2 °F 94% 29.90 in 10.0 mi West 10.4 mph - N/A   Overcast
11:50 AM 66.2 °F 55.4 °F 68% 29.89 in 10.0 mi WNW 13.8 mph - N/A   Clear
12:50 PM 69.8 °F 51.8 °F 53% 29.88 in 10.0 mi NNW 11.5 mph - N/A   Clear
2:50 PM 73.4 °F 50.0 °F 44% 29.87 in 10.0 mi WNW 17.3 mph - N/A   Clear
4:50 PM 75.2 °F 51.8 °F 44% 29.84 in 10.0 mi West 11.5 mph - N/A   Partly Cloudy
5:50 PM 75.2 °F 51.8 °F 44% 29.84 in 10.0 mi West 5.8 mph - N/A   Partly Cloudy
6:50 PM 73.4 °F 50.0 °F 44% 29.84 in 10.0 mi West 11.5 mph - N/A   Clear
7:50 PM 71.6 °F 50.0 °F 46% 29.85 in 10.0 mi WSW 5.8 mph - N/A   Clear
8:15 PM 62.6 °F 55.4 °F 77% 29.86 in 10.0 mi Calm Calm - N/A   Clear
8:35 PM 64.4 °F 53.6 °F 68% 29.87 in 10.0 mi SSW 5.8 mph - N/A   Clear
8:55 PM 64.4 °F 55.4 °F 73% 29.87 in 10.0 mi SSW 5.8 mph - N/A   Clear
9:15 PM 64.4 °F 53.6 °F 68% 29.88 in 10.0 mi SSW 5.8 mph - N/A   Clear
9:35 PM 64.4 °F 53.6 °F 68% 29.89 in 10.0 mi SW 9.2 mph - N/A   Clear
9:55 PM 64.4 °F 53.6 °F 68% 29.89 in 10.0 mi SSW 5.8 mph - N/A   Clear
10:35 PM 64.4 °F 53.6 °F 68% 29.90 in 10.0 mi SSW 4.6 mph - N/A   Scattered Clouds
10:55 PM 64.4 °F 53.6 °F 68% 29.90 in 10.0 mi South 4.6 mph - N/A   Mostly Cloudy
11:15 PM 62.6 °F 53.6 °F 72% 29.91 in 10.0 mi South 4.6 mph - N/A   Partly Cloudy
11:35 PM 62.6 °F 55.4 °F 77% 29.90 in 10.0 mi South 3.5 mph - N/A   Partly Cloudy
11:55 PM 62.6 °F 55.4 °F 77% 29.91 in 10.0 mi Calm Calm - N/A   Scattered Clouds